Other Surface Observations
Issued by NWS

Home | Current Version | Previous Version | Text Only | Print | Product List | Glossary On
Versions: 1 2 3 4 5 6 7 8 9 10 11 12 13 14 15 16 17 18 19 20 21 22 23 24 25 26 27 28 29 30 31 32 33 34 35 36 37 38 39 40 41 42 43 44 45 46 47 48 49 50
507
SXUS52 KTAE 280118
OSOTAE
OSOTAE
North Florida/South Alabama/Southwest Georgia Weather Roundup
National Weather Service Tallahassee Florida
900 PM EDT THU APR 27 2017

Note: "fair" indicates few or no clouds below 12,000 feet with no
significant weather and/or obstructions to visibility.

!FLZ017-115-028-034-025-280200
...North Florida...

CITY           SKY/WX    TMP DP  RH WIND       PRES   REMARKS
TALLAHASSEE    PTCLDY    76  72  87 S7        29.89R
APALACHICOLA   CLOUDY    76  76 100 S12       29.88S
PERRY          CLEAR     76  70  83 S5        29.91F
CROSS CITY     CLEAR     75  68  78 SW3       29.91F
JACKSONVILLE   CLEAR     77  69  76 S7        29.89R
$$

!FLZ112-006-005-002-011-280200
...Florida Panhandle...

CITY           SKY/WX    TMP DP  RH WIND       PRES   REMARKS
MARIANNA       CLOUDY    77  72  84 S8        29.85R
BONIFAY        FAIR      76  73  91 S6        29.86R
PANAMA CITY NW FAIR      76  72  87 SE9       29.86R
TYNDALL AFB    CLEAR     75  73  92 S12       29.87S
TYND DRONE APT FAIR      75  74  96 S12       29.87S
DE FUNIAK SPR  CLOUDY    75  73  93 S6        29.86R
EGLIN AFB      CLOUDY    76  73  92 S13       29.85R FOG
DESTIN         CLOUDY    78  78 100 VRB7      29.85R
HURLBURT       CLOUDY    76  73  90 S13       29.83S
CRESTVIEW      CLOUDY    77  72  84 S7        29.86R
PENSACOLA      CLOUDY    78  73  84 S13       29.83R
$$

!ALZ063-066-280200
...South Alabama...

CITY           SKY/WX    TMP DP  RH WIND       PRES   REMARKS
DOTHAN         MOCLDY    76  73  91 S14G21    29.87R
OZARK CAIRNS   PTCLDY    76  71  85 S14       29.84R
FT RUCKER HELI CLEAR     77  72  84 S12       29.83R
RUCKER HELI 3  FAIR      76  71  83 SW9       29.83R
RUCKER HELI 2  MOCLDY    76  71  84 S7        29.83R
FLORALA APT    LGT RAIN  76  70  82 S10       29.86R
ANDALUSIA      CLEAR     80  70  71 VRB6      29.83R
TROY           CLOUDY    73  72  96 CALM      29.83R
EUFALA         CLOUDY    75  72  90 VRB3      29.82R THUNDER
MOBILE         PTCLDY    76  67  73 S8        29.82R
$$

!GAZ120>161-280200
...Southwest and South Central Georgia...

CITY           SKY/WX    TMP DP  RH WIND       PRES   REMARKS
THOMASVILLE    FAIR      77  72  83 SW10      29.90R
BAINBRIDGE     CLEAR     79  68  69 SW9       29.87R
MOODY AFB      CLEAR     78  68  71 S12       29.88R
VALDOSTA       CLEAR     77  68  73 VRB5      29.90R
MOULTRIE       PTCLDY    77  68  73 S6        29.90R
BLAKELY        CLEAR     79  72  78 S7        29.84S
ALBANY         CLEAR     78  71  79 S8        29.87R
TIFTON         FAIR      77  67  71 S6        29.89R
FITZGERALD     CLOUDY    80  67  64 S7        29.91R
CORDELE        FAIR      80  71  74 CALM      29.87R
AMERICUS       CLOUDY    77  64  65 SW3       29.88R
HOMERVILLE     FAIR     N/A N/A N/A SW6       29.90S
$$

!GMZ750-755-770-775-280200
...Coastal and Buoy Obs...

STATION/POSITION TIME  TEMP    WIND        PRES    VSBY  WAVE
                       AIR SEA DIR/SP/G                  HT/PER
                 (UTC) (F)     (DEG/KT/KT) (MB)    (MI)  (FT/S)
KEATON BEACH     0000   76     190/  8/  9 1012.7F
CEDAR KEY        0000   77     260/  4/  5 1013.3F
C TOWER          0000   74     160/ 10/ 11 1012.5S
APALACHICOLA BUO 2350   74 74  150/  8/ 10 1012.2          4/ 6
PANAMA CITY BUOY 2350   76 75  160/ 10/ 10 1010.8          3/ 7
MOBILE BUOY      0050   76 77  150/  6/  6 1010.0R
ORANGE BCH AL BU 2350   75 75  170/  8/ 12 1009.4          4/ 7
$$




USA.gov is the U.S. government's official web portal to all federal, state and local government web resources and services.